Location: Sungai Igah
(2.7333°N, 114.2500°E)
Time: 19:43:45
(UTC+00:00)

SL-16 R/B - Pass Details

Date: 14 June 2021
Orbit: 843 x 845 km, 71.0° (Epoch: 25 July)

Event Time Altitude Azimuth Distance (km) Brightness Sun altitude
Exits shadow 13:34:07 21° 295° (WNW) 1,801 4.4 -41.3°
Drops below altitude 10° 13:37:43 10° 335° (NNW) 2,452 5.1 -42.0°
Sets 13:40:44 0° 350° (N) 3,384 5.8 -42.6°
